{"data":{"norad_id":36792,"intl_designator":"2010-034A","name":"ECHOSTAR 15","alt_names":[],"object_type":"PAYLOAD","status":"ACTIVE","operator":null,"country":"US","launch_date":"2010-07-10","launch_site_code":"TYMSC","launch_vehicle":null,"mission":null,"orbit_class":"UNKNOWN","rcs_meters":6.3096,"size_class":null,"mass_kg":null,"dimensions":null,"purposes":["comms"],"wikipedia_slug":null,"has_3d_model":false,"image_url":null,"decayed_at":null,"tle_current":{"epoch":"2026-05-25T03:42:38.615040Z","epoch_age_seconds":58194,"freshness":"FRESH","line1":"1 36792U 10034A   26145.15461360 -.00000003  00000+0  00000+0 0  9991","line2":"2 36792   0.0384  85.5004 0001912 319.9880 134.1172  1.00272266 58094","mean_motion":1.00272266,"eccentricity":0.0001912,"inclination_deg":0.0384,"raan_deg":85.5004,"arg_perigee_deg":319.988,"mean_anomaly_deg":134.1172,"bstar":0,"rev_number":5809,"period_min":1436.0900151593,"perigee_km":35778.398249,"apogee_km":35794.521990938,"semimajor_km":42164.597119969,"source":"CELESTRAK","updated_at":"2026-05-25T13:38:13.894023Z"}}}